| time (UTC) | temp F | wind direction | speed MPH | gust MPH | rain 1hr in | rain 24hr in | rain mn in | humidity % | barometer mb |
| 20260906120048 | 70 | 61 | 0.0 | 2.0 | 0.00 | 0.00 | 0.00 | 93 | 1015.7 |
| 20260906115543 | 70 | 325 | 2.0 | 2.0 | 0.00 | 0.00 | 0.00 | 93 | 1015.6 |
| 20260906115038 | 70 | 290 | 1.0 | 2.0 | 0.00 | 0.00 | 0.00 | 93 | 1015.6 |
| 20260906114538 | 70 | 320 | 2.0 | 2.0 | 0.00 | 0.00 | 0.00 | 93 | 1015.5 |
| 20260906114033 | 70 | 333 | 2.0 | 2.0 | 0.00 | 0.00 | 0.00 | 94 | 1015.3 |
| 20260906113532 | 70 | 313 | 1.0 | 2.0 | 0.00 | 0.00 | 0.00 | 94 | 1015.4 |
| 20260906113028 | 70 | 309 | 1.0 | 2.0 | 0.00 | 0.00 | 0.00 | 95 | 1015.2 |
| 20260906112523 | 70 | 305 | 1.0 | 3.0 | 0.00 | 0.00 | 0.00 | 95 | 1014.9 |
| 20260906112019 | 70 | 286 | 2.0 | 2.0 | 0.00 | 0.00 | 0.00 | 96 | 1015.0 |
| 20260906111519 | 70 | 306 | 1.0 | 2.0 | 0.00 | 0.00 | 0.00 | 96 | 1015.0 |
| 20260906111014 | 69 | 316 | 0.0 | 2.0 | 0.00 | 0.00 | 0.00 | 96 | 1014.9 |
| 20260906110509 | 69 | 304 | 1.0 | 2.0 | 0.00 | 0.00 | 0.00 | 96 | 1014.6 |
| 20260906110008 | 70 | 315 | 1.0 | 2.0 | 0.00 | 0.00 | 0.00 | 97 | 1014.7 |
| 20260906105503 | 70 | 288 | 1.0 | 1.0 | 0.00 | 0.00 | 0.00 | 97 | 1014.8 |
| 20260906104959 | 70 | 332 | 1.0 | 2.0 | 0.00 | 0.00 | 0.00 | 97 | 1014.7 |
| 20260906104457 | 70 | 345 | 1.0 | 2.0 | 0.00 | 0.00 | 0.00 | 97 | 1014.6 |
| 20260906103957 | 69 | 313 | 2.0 | 2.0 | 0.00 | 0.00 | 0.00 | 97 | 1014.7 |
| 20260906103455 | 69 | 325 | 0.0 | 2.0 | 0.00 | 0.00 | 0.00 | 98 | 1014.5 |
| 20260906102950 | 69 | 357 | 0.0 | 2.0 | 0.00 | 0.00 | 0.00 | 99 | 1014.4 |
| 20260906102451 | 69 | 332 | 2.0 | 2.0 | 0.00 | 0.00 | 0.00 | 99 | 1014.5 |
| 20260906101945 | 69 | 324 | 0.0 | 2.0 | 0.00 | 0.00 | 0.00 | 99 | 1014.5 |
| 20260906101440 | 70 | 233 | 0.0 | 2.0 | 0.00 | 0.00 | 0.00 | 99 | 1014.2 |
| 20260906100935 | 69 | 333 | 0.0 | 2.0 | 0.00 | 0.00 | 0.00 | 99 | 1014.4 |
| 20260906100435 | 69 | 328 | 1.0 | 1.0 | 0.00 | 0.00 | 0.00 | 99 | 1014.3 |
| 20260906095930 | 69 | 316 | 0.0 | 1.0 | 0.00 | 0.00 | 0.00 | 99 | 1014.2 |
| 20260906095425 | 69 | 222 | 0.0 | 2.0 | 0.00 | 0.00 | 0.00 | 99 | 1014.0 |
| 20260906094920 | 70 | 334 | 0.0 | 1.0 | 0.00 | 0.00 | 0.00 | 99 | 1014.0 |
| 20260906094415 | 70 | 331 | 0.0 | 2.0 | 0.00 | 0.00 | 0.00 | 99 | 1013.8 |
| 20260906093911 | 70 | 301 | 1.0 | 2.0 | 0.00 | 0.00 | 0.00 | 99 | 1014.1 |
| 20260906093407 | 70 | 308 | 0.0 | 2.0 | 0.00 | 0.00 | 0.00 | 99 | 1013.9 |
| 20260906092906 | 70 | 311 | 0.0 | 2.0 | 0.00 | 0.00 | 0.00 | 99 | 1013.7 |
| 20260906092401 | 70 | 322 | 1.0 | 2.0 | 0.00 | 0.00 | 0.00 | 99 | 1013.6 |
| 20260906091856 | 70 | 342 | 0.0 | 2.0 | 0.00 | 0.00 | 0.00 | 99 | 1013.8 |
| 20260906091352 | 70 | 325 | 1.0 | 2.0 | 0.00 | 0.00 | 0.00 | 99 | 1013.7 |
| 20260906090849 | 70 | 297 | 1.0 | 2.0 | 0.00 | 0.00 | 0.00 | 99 | 1013.7 |
| 20260906090348 | 71 | 316 | 1.0 | 2.0 | 0.00 | 0.00 | 0.00 | 99 | 1013.6 |
| 20260906085842 | 71 | 4 | 0.0 | 2.0 | 0.00 | 0.00 | 0.00 | 99 | 1013.4 |
| 20260906085336 | 71 | 326 | 1.0 | 2.0 | 0.00 | 0.00 | 0.00 | 99 | 1013.6 |
| 20260906084831 | 71 | 331 | 1.0 | 2.0 | 0.00 | 0.00 | 0.00 | 99 | 1013.5 |
| 20260906084331 | 71 | 334 | 1.0 | 2.0 | 0.00 | 0.00 | 0.00 | 99 | 1013.5 |
| 20260906083825 | 71 | 336 | 1.0 | 3.0 | 0.00 | 0.00 | 0.00 | 99 | 1013.7 |
| 20260906083321 | 71 | 334 | 1.0 | 2.0 | 0.00 | 0.00 | 0.00 | 99 | 1013.4 |
| 20260906082815 | 71 | 347 | 1.0 | 2.0 | 0.00 | 0.00 | 0.00 | 99 | 1013.5 |
| 20260906082310 | 71 | 295 | 1.0 | 2.0 | 0.00 | 0.00 | 0.00 | 99 | 1013.6 |
| 20260906081806 | 71 | 310 | 2.0 | 2.0 | 0.00 | 0.00 | 0.00 | 99 | 1013.6 |
| 20260906081302 | 71 | 354 | 0.0 | 2.0 | 0.00 | 0.00 | 0.00 | 99 | 1013.3 |
| 20260906080758 | 71 | 10 | 0.0 | 2.0 | 0.00 | 0.00 | 0.00 | 99 | 1013.4 |
| 20260906080254 | 71 | 349 | 0.0 | 2.0 | 0.00 | 0.00 | 0.00 | 99 | 1013.4 |
| 20260906075753 | 71 | 346 | 0.0 | 2.0 | 0.00 | 0.00 | 0.00 | 99 | 1013.4 |
| 20260906075253 | 71 | 323 | 1.0 | 2.0 | 0.00 | 0.00 | 0.00 | 99 | 1013.4 |
| 20260906074748 | 71 | 331 | 3.0 | 3.0 | 0.00 | 0.00 | 0.00 | 99 | 1013.1 |
| 20260906074247 | 71 | 319 | 0.0 | 1.0 | 0.00 | 0.00 | 0.00 | 99 | 1013.3 |
| 20260906073748 | 71 | 88 | 1.0 | 3.0 | 0.00 | 0.00 | 0.00 | 99 | 1013.5 |
| 20260906073248 | 71 | 346 | 0.0 | 2.0 | 0.00 | 0.00 | 0.00 | 99 | 1013.2 |
| 20260906072743 | 71 | 346 | 0.0 | 2.0 | 0.00 | 0.00 | 0.00 | 99 | 1013.3 |
| 20260906072239 | 71 | 329 | 0.0 | 1.0 | 0.00 | 0.00 | 0.00 | 99 | 1013.5 |
| 20260906071735 | 71 | 44 | 0.0 | 2.0 | 0.00 | 0.00 | 0.00 | 99 | 1013.3 |
| 20260906071235 | 71 | 344 | 2.0 | 2.0 | 0.00 | 0.00 | 0.00 | 99 | 1013.1 |
| 20260906070731 | 71 | 341 | 1.0 | 2.0 | 0.00 | 0.00 | 0.00 | 99 | 1013.1 |
| 20260906070227 | 71 | 323 | 0.0 | 3.0 | 0.00 | 0.00 | 0.00 | 99 | 1013.2 |
| 20260906065726 | 71 | 322 | 0.0 | 2.0 | 0.00 | 0.00 | 0.00 | 99 | 1013.4 |
| 20260906065222 | 71 | 324 | 2.0 | 2.0 | 0.00 | 0.00 | 0.00 | 99 | 1013.4 |
| 20260906064717 | 71 | 309 | 1.0 | 2.0 | 0.00 | 0.00 | 0.00 | 99 | 1013.2 |
| 20260906064213 | 71 | 330 | 1.0 | 2.0 | 0.00 | 0.00 | 0.00 | 99 | 1013.1 |
| 20260906063708 | 71 | 321 | 0.0 | 2.0 | 0.00 | 0.00 | 0.00 | 99 | 1013.3 |
| 20260906063203 | 71 | 335 | 1.0 | 3.0 | 0.00 | 0.00 | 0.00 | 99 | 1013.3 |
| 20260906062659 | 71 | 320 | 0.0 | 2.0 | 0.00 | 0.00 | 0.00 | 99 | 1013.4 |
| 20260906062158 | 71 | 317 | 1.0 | 2.0 | 0.00 | 0.00 | 0.00 | 99 | 1013.3 |
| 20260906061654 | 71 | 349 | 0.0 | 2.0 | 0.00 | 0.00 | 0.00 | 99 | 1013.1 |
| 20260906061149 | 71 | 325 | 0.0 | 2.0 | 0.00 | 0.00 | 0.00 | 99 | 1013.3 |
| 20260906060645 | 71 | 259 | 0.0 | 2.0 | 0.00 | 0.00 | 0.00 | 99 | 1013.4 |
| 20260906060142 | 71 | 303 | 1.0 | 2.0 | 0.00 | 0.00 | 0.00 | 99 | 1013.3 |
| 20260906055638 | 72 | 322 | 1.0 | 2.0 | 0.00 | 0.00 | 0.00 | 99 | 1013.5 |
| 20260906055133 | 72 | 332 | 0.0 | 2.0 | 0.00 | 0.00 | 0.00 | 99 | 1013.4 |
| 20260906054628 | 72 | 347 | 0.0 | 2.0 | 0.00 | 0.00 | 0.00 | 99 | 1013.5 |
| 20260906054123 | 72 | 343 | 0.0 | 2.0 | 0.00 | 0.00 | 0.00 | 99 | 1013.7 |
| 20260906053620 | 72 | 355 | 0.0 | 2.0 | 0.00 | 0.00 | 0.00 | 99 | 1013.7 |
| 20260906053119 | 72 | 331 | 1.0 | 2.0 | 0.00 | 0.00 | 0.00 | 99 | 1013.5 |
| 20260906052615 | 72 | 347 | 1.0 | 2.0 | 0.00 | 0.00 | 0.00 | 99 | 1013.6 |
| 20260906052112 | 72 | 333 | 0.0 | 2.0 | 0.00 | 0.00 | 0.00 | 99 | 1013.6 |
| 20260906051608 | 72 | 342 | 0.0 | 2.0 | 0.00 | 0.00 | 0.00 | 99 | 1013.6 |
| 20260906051103 | 72 | 326 | 0.0 | 2.0 | 0.00 | 0.00 | 0.00 | 99 | 1013.7 |
| 20260906050558 | 72 | 345 | 0.0 | 2.0 | 0.00 | 0.00 | 0.00 | 99 | 1013.8 |
| 20260906050053 | 72 | 326 | 0.0 | 2.0 | 0.00 | 0.00 | 0.00 | 99 | 1013.6 |
| 20260906045551 | 72 | 346 | 0.0 | 2.0 | 0.00 | 0.00 | 0.00 | 99 | 1013.7 |
| 20260906045047 | 72 | 312 | 1.0 | 1.0 | 0.00 | 0.00 | 0.00 | 99 | 1014.0 |
| 20260906044542 | 72 | 336 | 1.0 | 2.0 | 0.00 | 0.00 | 0.00 | 99 | 1013.9 |
| 20260906044038 | 72 | 312 | 0.0 | 2.0 | 0.00 | 0.00 | 0.00 | 99 | 1013.9 |
| 20260906043533 | 72 | 330 | 0.0 | 2.0 | 0.00 | 0.00 | 0.00 | 99 | 1013.8 |
| 20260906043030 | 72 | 21 | 0.0 | 2.0 | 0.00 | 0.00 | 0.00 | 99 | 1014.0 |
| 20260906042528 | 72 | 335 | 0.0 | 1.0 | 0.00 | 0.00 | 0.00 | 99 | 1013.8 |
| 20260906042023 | 72 | 353 | 0.0 | 1.0 | 0.00 | 0.00 | 0.00 | 99 | 1013.9 |
| 20260906041520 | 72 | 335 | 0.0 | 2.0 | 0.00 | 0.00 | 0.00 | 99 | 1013.8 |
| 20260906041019 | 72 | 337 | 1.0 | 2.0 | 0.00 | 0.00 | 0.00 | 99 | 1013.9 |
| 20260906040515 | 72 | 325 | 0.0 | 2.0 | 0.00 | 0.00 | 0.00 | 99 | 1013.5 |
| 20260906040010 | 72 | 230 | 0.0 | 2.0 | 0.00 | 0.00 | 0.00 | 99 | 1013.6 |
| 20260906035505 | 72 | 317 | 1.0 | 2.0 | 0.00 | 0.39 | 0.39 | 99 | 1014.0 |
| 20260906035001 | 72 | 327 | 0.0 | 2.0 | 0.00 | 0.39 | 0.39 | 99 | 1013.8 |
| 20260906034500 | 72 | 324 | 2.0 | 3.0 | 0.00 | 0.39 | 0.39 | 99 | 1014.1 |
| 20260906033955 | 72 | 335 | 1.0 | 1.0 | 0.00 | 0.39 | 0.39 | 99 | 1013.8 |
| 20260906033450 | 72 | 303 | 2.0 | 2.0 | 0.00 | 0.39 | 0.39 | 99 | 1013.7 |
| 20260906032946 | 72 | 344 | 0.0 | 2.0 | 0.00 | 0.39 | 0.39 | 99 | 1013.7 |
| 20260906032443 | 72 | 339 | 0.0 | 2.0 | 0.00 | 0.39 | 0.39 | 99 | 1013.7 |
| 20260906031937 | 72 | 335 | 1.0 | 2.0 | 0.00 | 0.39 | 0.39 | 99 | 1013.7 |
| 20260906031432 | 72 | 346 | 0.0 | 2.0 | 0.00 | 0.39 | 0.39 | 99 | 1013.8 |
| 20260906030927 | 72 | 0 | 0.0 | 2.0 | 0.00 | 0.39 | 0.39 | 99 | 1013.7 |
| 20260906030422 | 72 | 326 | 0.0 | 1.0 | 0.00 | 0.39 | 0.39 | 99 | 1013.7 |
| 20260906025916 | 72 | 329 | 0.0 | 2.0 | 0.00 | 0.39 | 0.39 | 99 | 1013.8 |
| 20260906025411 | 72 | 330 | 0.0 | 1.0 | 0.00 | 0.39 | 0.39 | 99 | 1013.8 |
| 20260906024910 | 72 | 346 | 0.0 | 2.0 | 0.00 | 0.39 | 0.39 | 99 | 1013.8 |
| 20260906024409 | 72 | 0 | 0.0 | 1.0 | 0.00 | 0.39 | 0.39 | 99 | 1013.7 |
| 20260906023904 | 72 | 344 | 0.0 | 2.0 | 0.00 | 0.39 | 0.39 | 99 | 1013.7 |
| 20260906023400 | 73 | 345 | 0.0 | 0.0 | 0.00 | 0.39 | 0.39 | 99 | 1013.7 |
| 20260906022855 | 72 | 322 | 0.0 | 0.0 | 0.00 | 0.39 | 0.39 | 99 | 1013.8 |
| 20260906022350 | 73 | 348 | 0.0 | 2.0 | 0.00 | 0.39 | 0.39 | 99 | 1013.9 |
| 20260906021845 | 73 | 341 | 0.0 | 1.0 | 0.00 | 0.39 | 0.39 | 99 | 1013.7 |
| 20260906021344 | 73 | 336 | 0.0 | 1.0 | 0.00 | 0.39 | 0.39 | 99 | 1013.7 |
| 20260906020834 | 73 | 339 | 0.0 | 2.0 | 0.00 | 0.39 | 0.39 | 99 | 1013.9 |
| 20260906020333 | 73 | 350 | 0.0 | 0.0 | 0.00 | 0.39 | 0.39 | 99 | 1013.9 |
| 20260906015828 | 73 | 326 | 0.0 | 1.0 | 0.00 | 0.39 | 0.39 | 99 | 1013.6 |
| 20260906015326 | 73 | 318 | 0.0 | 2.0 | 0.00 | 0.39 | 0.39 | 99 | 1013.6 |
| 20260906014821 | 73 | 343 | 0.0 | 2.0 | 0.00 | 0.39 | 0.39 | 99 | 1013.7 |
| 20260906014316 | 73 | 327 | 0.0 | 2.0 | 0.00 | 0.39 | 0.39 | 99 | 1013.6 |
| 20260906013812 | 74 | 353 | 0.0 | 2.0 | 0.00 | 0.39 | 0.39 | 99 | 1013.6 |
| 20260906013307 | 74 | 333 | 1.0 | 1.0 | 0.00 | 0.39 | 0.39 | 99 | 1013.6 |
| 20260906012803 | 74 | 330 | 1.0 | 2.0 | 0.00 | 0.39 | 0.39 | 99 | 1013.5 |
| 20260906012257 | 74 | 328 | 1.0 | 2.0 | 0.00 | 0.39 | 0.39 | 99 | 1013.3 |
| 20260906011753 | 74 | 303 | 1.0 | 2.0 | 0.00 | 0.39 | 0.39 | 99 | 1013.5 |
| 20260906011252 | 74 | 296 | 1.0 | 1.0 | 0.00 | 0.39 | 0.39 | 99 | 1013.2 |
| 20260906010748 | 74 | 333 | 0.0 | 1.0 | 0.00 | 0.39 | 0.39 | 99 | 1013.3 |
| 20260906010244 | 74 | 312 | 1.0 | 2.0 | 0.00 | 0.39 | 0.39 | 99 | 1013.0 |
| 20260906005739 | 74 | 314 | 0.0 | 2.0 | 0.00 | 0.39 | 0.39 | 98 | 1013.1 |
| 20260906005238 | 74 | 327 | 1.0 | 2.0 | 0.00 | 0.39 | 0.39 | 98 | 1013.0 |
| 20260906004737 | 74 | 315 | 0.0 | 2.0 | 0.00 | 0.39 | 0.39 | 98 | 1012.9 |
| 20260906004233 | 74 | 322 | 0.0 | 1.0 | 0.00 | 0.39 | 0.39 | 98 | 1012.8 |
| 20260906003732 | 74 | 315 | 0.0 | 1.0 | 0.00 | 0.39 | 0.39 | 98 | 1012.9 |
| 20260906003228 | 74 | 306 | 1.0 | 2.0 | 0.00 | 0.39 | 0.39 | 98 | 1012.9 |
| 20260906002723 | 74 | 326 | 1.0 | 2.0 | 0.00 | 0.39 | 0.39 | 98 | 1012.7 |
| 20260906002218 | 74 | 321 | 1.0 | 2.0 | 0.00 | 0.39 | 0.39 | 98 | 1012.9 |
| 20260906001713 | 74 | 336 | 0.0 | 1.0 | 0.00 | 0.39 | 0.39 | 98 | 1012.9 |
| 20260906001214 | 74 | 313 | 0.0 | 2.0 | 0.00 | 0.39 | 0.39 | 98 | 1012.8 |
| 20260906000709 | 74 | 326 | 0.0 | 1.0 | 0.00 | 0.39 | 0.39 | 98 | 1012.3 |
| 20260906000204 | 74 | 318 | 1.0 | 2.0 | 0.00 | 0.39 | 0.39 | 97 | 1012.5 |
| 20260905235703 | 75 | 309 | 0.0 | 2.0 | 0.00 | 0.39 | 0.39 | 97 | 1012.3 |
| 20260905235158 | 75 | 310 | 1.0 | 1.0 | 0.00 | 0.39 | 0.39 | 97 | 1012.3 |
| 20260905234654 | 75 | 224 | 0.0 | 1.0 | 0.00 | 0.39 | 0.39 | 96 | 1012.6 |
| 20260905234149 | 75 | 344 | 1.0 | 2.0 | 0.00 | 0.39 | 0.39 | 96 | 1012.2 |
| 20260905233644 | 75 | 328 | 0.0 | 2.0 | 0.00 | 0.39 | 0.39 | 95 | 1012.2 |
| 20260905233143 | 75 | 307 | 1.0 | 2.0 | 0.00 | 0.39 | 0.39 | 95 | 1012.4 |
| 20260905232638 | 75 | 324 | 1.0 | 1.0 | 0.00 | 0.39 | 0.39 | 96 | 1012.1 |
| 20260905232134 | 75 | 344 | 0.0 | 2.0 | 0.00 | 0.39 | 0.39 | 96 | 1011.9 |
| 20260905231629 | 75 | 0 | 0.0 | 2.0 | 0.00 | 0.39 | 0.39 | 95 | 1011.7 |
| 20260905231126 | 75 | 333 | 0.0 | 1.0 | 0.00 | 0.39 | 0.39 | 95 | 1011.9 |
| 20260905230621 | 76 | 338 | 0.0 | 1.0 | 0.00 | 0.39 | 0.39 | 94 | 1012.1 |
| 20260905230118 | 76 | 208 | 0.0 | 2.0 | 0.00 | 0.39 | 0.39 | 93 | 1012.2 |
| 20260905225613 | 76 | 304 | 0.0 | 1.0 | 0.00 | 0.39 | 0.39 | 92 | 1012.6 |
| 20260905225108 | 75 | 335 | 0.0 | 1.0 | 0.00 | 0.39 | 0.39 | 93 | 1012.6 |
| 20260905224608 | 76 | 336 | 1.0 | 1.0 | 0.00 | 0.39 | 0.39 | 93 | 1012.7 |
| 20260905224107 | 76 | 312 | 0.0 | 1.0 | 0.00 | 0.39 | 0.39 | 91 | 1012.6 |
| 20260905223605 | 76 | 311 | 0.0 | 1.0 | 0.00 | 0.39 | 0.39 | 91 | 1012.3 |
| 20260905223101 | 77 | 318 | 1.0 | 2.0 | 0.00 | 0.39 | 0.39 | 89 | 1012.3 |
| 20260905222601 | 77 | 298 | 1.0 | 3.0 | 0.00 | 0.39 | 0.39 | 89 | 1012.6 |
| 20260905222056 | 76 | 317 | 1.0 | 2.0 | 0.00 | 0.39 | 0.39 | 89 | 1012.5 |
| 20260905221552 | 76 | 311 | 0.0 | 2.0 | 0.00 | 0.39 | 0.39 | 90 | 1012.3 |
| 20260905221048 | 76 | 323 | 1.0 | 2.0 | 0.00 | 0.39 | 0.39 | 90 | 1012.4 |
| 20260905220543 | 76 | 325 | 1.0 | 1.0 | 0.00 | 0.39 | 0.39 | 89 | 1012.2 |
| 20260905220039 | 77 | 328 | 2.0 | 2.0 | 0.00 | 0.39 | 0.39 | 89 | 1012.1 |
| 20260905215538 | 77 | 329 | 0.0 | 1.0 | 0.00 | 0.39 | 0.39 | 87 | 1012.2 |
| 20260905215035 | 77 | 325 | 0.0 | 2.0 | 0.00 | 0.39 | 0.39 | 87 | 1012.2 |
| 20260905214531 | 77 | 317 | 1.0 | 2.0 | 0.00 | 0.39 | 0.39 | 88 | 1012.4 |
| 20260905214025 | 77 | 319 | 1.0 | 2.0 | 0.00 | 0.39 | 0.39 | 87 | 1012.1 |
| 20260905213520 | 77 | 329 | 1.0 | 2.0 | 0.00 | 0.39 | 0.39 | 88 | 1012.3 |
| 20260905213016 | 77 | 313 | 1.0 | 3.0 | 0.00 | 0.39 | 0.39 | 86 | 1012.2 |
| 20260905212511 | 77 | 2 | 1.0 | 2.0 | 0.00 | 0.39 | 0.39 | 89 | 1012.2 |
| 20260905212010 | 77 | 297 | 0.0 | 2.0 | 0.00 | 0.39 | 0.39 | 90 | 1012.3 |
| 20260905211506 | 77 | 326 | 0.0 | 1.0 | 0.00 | 0.39 | 0.39 | 90 | 1012.4 |
| 20260905211001 | 77 | 327 | 0.0 | 2.0 | 0.00 | 0.39 | 0.39 | 89 | 1012.3 |
| 20260905210457 | 77 | 324 | 0.0 | 2.0 | 0.00 | 0.39 | 0.39 | 87 | 1012.5 |
| 20260905205956 | 77 | 327 | 1.0 | 2.0 | 0.00 | 0.39 | 0.39 | 88 | 1012.4 |
| 20260905205451 | 77 | 313 | 1.0 | 2.0 | 0.00 | 0.39 | 0.39 | 91 | 1012.5 |
| 20260905204949 | 77 | 319 | 1.0 | 1.0 | 0.00 | 0.39 | 0.39 | 90 | 1012.2 |
| 20260905204445 | 77 | 342 | 0.0 | 2.0 | 0.00 | 0.39 | 0.39 | 92 | 1012.5 |
| 20260905203945 | 77 | 336 | 1.0 | 3.0 | 0.00 | 0.39 | 0.39 | 93 | 1012.7 |
| 20260905203440 | 77 | 323 | 1.0 | 2.0 | 0.00 | 0.39 | 0.39 | 93 | 1012.5 |
| 20260905202935 | 76 | 322 | 2.0 | 2.0 | 0.00 | 0.39 | 0.39 | 94 | 1012.5 |
| 20260905202425 | 76 | 339 | 1.0 | 3.0 | 0.00 | 0.39 | 0.39 | 95 | 1012.2 |
| 20260905201921 | 76 | 350 | 1.0 | 2.0 | 0.00 | 0.39 | 0.39 | 95 | 1012.3 |
| 20260905201415 | 76 | 304 | 1.0 | 2.0 | 0.00 | 0.39 | 0.39 | 94 | 1012.0 |
| 20260905200910 | 76 | 325 | 1.0 | 1.0 | 0.00 | 0.39 | 0.39 | 95 | 1012.1 |
| 20260905200406 | 76 | 314 | 0.0 | 2.0 | 0.00 | 0.39 | 0.39 | 93 | 1012.2 |
| 20260905195903 | 76 | 330 | 1.0 | 2.0 | 0.00 | 0.39 | 0.39 | 96 | 1012.2 |
| 20260905195359 | 75 | 315 | 0.0 | 1.0 | 0.00 | 0.39 | 0.39 | 97 | 1012.1 |
| 20260905194854 | 75 | 319 | 1.0 | 2.0 | 0.00 | 0.39 | 0.39 | 98 | 1012.1 |
| 20260905194353 | 74 | 311 | 0.0 | 2.0 | 0.00 | 0.39 | 0.39 | 98 | 1012.4 |
| 20260905193848 | 74 | 304 | 1.0 | 3.0 | 0.00 | 0.39 | 0.39 | 99 | 1012.3 |
| 20260905193343 | 74 | 331 | 1.0 | 2.0 | 0.00 | 0.39 | 0.39 | 99 | 1013.0 |
| 20260905192838 | 74 | 330 | 0.0 | 1.0 | 0.00 | 0.39 | 0.39 | 99 | 1012.7 |
| 20260905192334 | 74 | 328 | 3.0 | 3.0 | 0.00 | 0.39 | 0.39 | 99 | 1013.0 |
| 20260905191833 | 74 | 333 | 0.0 | 2.0 | 0.00 | 0.39 | 0.39 | 99 | 1013.4 |
| 20260905191332 | 74 | 317 | 1.0 | 2.0 | 0.00 | 0.39 | 0.39 | 99 | 1013.1 |
| 20260905190830 | 74 | 317 | 0.0 | 2.0 | 0.02 | 0.39 | 0.39 | 99 | 1013.0 |
| 20260905190325 | 74 | 333 | 0.0 | 0.0 | 0.02 | 0.39 | 0.39 | 99 | 1013.2 |
| 20260905185824 | 74 | 218 | 0.0 | 2.0 | 0.00 | 0.39 | 0.39 | 99 | 1013.3 |
| 20260905185319 | 74 | 315 | 2.0 | 2.0 | 0.00 | 0.39 | 0.39 | 99 | 1013.5 |
| 20260905184818 | 74 | 317 | 1.0 | 1.0 | 0.00 | 0.39 | 0.39 | 99 | 1013.4 |
| 20260905184317 | 74 | 332 | 1.0 | 2.0 | 0.00 | 0.39 | 0.39 | 99 | 1013.3 |
| 20260905183816 | 74 | 319 | 1.0 | 2.0 | 0.00 | 0.39 | 0.39 | 99 | 1013.2 |
| 20260905183312 | 74 | 302 | 1.0 | 1.0 | 0.00 | 0.39 | 0.39 | 99 | 1013.1 |
| 20260905182806 | 73 | 334 | 1.0 | 1.0 | 0.02 | 0.39 | 0.39 | 99 | 1013.3 |
| 20260905182306 | 73 | 301 | 1.0 | 2.0 | 0.07 | 0.39 | 0.39 | 99 | 1013.2 |
| 20260905181801 | 73 | 315 | 2.0 | 2.0 | 0.05 | 0.38 | 0.38 | 99 | 1013.1 |
| 20260905181300 | 73 | 295 | 0.0 | 2.0 | 0.00 | 0.37 | 0.37 | 99 | 1013.0 |
| 20260905180754 | 73 | 325 | 0.0 | 2.0 | 0.00 | 0.37 | 0.37 | 99 | 1012.7 |
| 20260905180250 | 73 | 322 | 0.0 | 1.0 | 0.00 | 0.37 | 0.37 | 99 | 1013.0 |
| 20260905175744 | 73 | 311 | 0.0 | 2.0 | 0.00 | 0.37 | 0.37 | 99 | 1013.3 |
| 20260905175239 | 73 | 212 | 0.0 | 2.0 | 0.00 | 0.37 | 0.37 | 99 | 1013.1 |
| 20260905174734 | 73 | 311 | 0.0 | 2.0 | 0.00 | 0.37 | 0.37 | 99 | 1013.3 |
| 20260905174230 | 73 | 159 | 0.0 | 2.0 | 0.00 | 0.37 | 0.37 | 99 | 1013.4 |
| 20260905173726 | 73 | 302 | 1.0 | 1.0 | 0.00 | 0.37 | 0.37 | 99 | 1013.6 |
| 20260905173221 | 72 | 332 | 0.0 | 2.0 | 0.00 | 0.37 | 0.37 | 99 | 1013.8 |
| 20260905172715 | 71 | 309 | 0.0 | 2.0 | 0.00 | 0.37 | 0.37 | 99 | 1013.3 |
| 20260905172209 | 71 | 347 | 2.0 | 2.0 | 0.00 | 0.37 | 0.37 | 99 | 1013.3 |
| 20260905171705 | 71 | 180 | 0.0 | 1.0 | 0.00 | 0.37 | 0.37 | 99 | 1013.4 |
| 20260905171201 | 71 | 316 | 0.0 | 2.0 | 0.00 | 0.37 | 0.37 | 99 | 1013.5 |
| 20260905170658 | 71 | 330 | 0.0 | 2.0 | 0.00 | 0.37 | 0.37 | 99 | 1013.8 |
| 20260905170157 | 70 | 218 | 0.0 | 0.0 | 0.00 | 0.37 | 0.37 | 99 | 1014.0 |
| 20260905165652 | 70 | 230 | 0.0 | 1.0 | 0.05 | 0.37 | 0.37 | 99 | 1014.4 |
| 20260905165147 | 70 | 112 | 0.0 | 1.0 | 0.07 | 0.37 | 0.37 | 99 | 1014.7 |
| 20260905164642 | 70 | 311 | 1.0 | 2.0 | 0.09 | 0.37 | 0.37 | 99 | 1015.0 |
| 20260905164141 | 71 | 283 | 2.0 | 4.0 | 0.21 | 0.36 | 0.36 | 99 | 1015.2 |
| 20260905163638 | 71 | 281 | 1.0 | 2.0 | 0.45 | 0.35 | 0.35 | 99 | 1015.1 |
| 20260905163134 | 72 | 317 | 2.0 | 5.0 | 1.13 | 0.33 | 0.33 | 99 | 1015.1 |
| 20260905162630 | 74 | 284 | 1.0 | 6.0 | 1.04 | 0.24 | 0.24 | 98 | 1015.1 |
| 20260905162129 | 76 | 328 | 1.0 | 2.0 | 0.52 | 0.11 | 0.11 | 96 | 1015.1 |
| 20260905161629 | 77 | 343 | 0.0 | 1.0 | 0.35 | 0.06 | 0.06 | 94 | 1014.7 |
| 20260905161126 | 78 | 333 | 0.0 | 1.0 | 0.09 | 0.02 | 0.02 | 91 | 1014.8 |
| 20260905160621 | 79 | 311 | 1.0 | 3.0 | 0.00 | 0.00 | 0.00 | 87 | 1014.5 |
| 20260905160115 | 79 | 318 | 1.0 | 3.0 | 0.00 | 0.00 | 0.00 | 86 | 1014.4 |
| 20260905155609 | 80 | 301 | 2.0 | 2.0 | 0.00 | 0.00 | 0.00 | 85 | 1014.0 |
| 20260905155108 | 80 | 302 | 2.0 | 2.0 | 0.00 | 0.00 | 0.00 | 85 | 1013.8 |
| 20260905154608 | 81 | 232 | 0.0 | 2.0 | 0.00 | 0.00 | 0.00 | 83 | 1013.8 |
| 20260905154104 | 81 | 325 | 1.0 | 3.0 | 0.00 | 0.00 | 0.00 | 84 | 1013.6 |
| 20260905153600 | 80 | 328 | 0.0 | 2.0 | 0.00 | 0.00 | 0.00 | 83 | 1013.6 |
| 20260905153054 | 80 | 296 | 0.0 | 2.0 | 0.00 | 0.00 | 0.00 | 83 | 1013.5 |
| 20260905152549 | 80 | 230 | 0.0 | 1.0 | 0.00 | 0.00 | 0.00 | 84 | 1013.6 |
| 20260905152044 | 80 | 312 | 2.0 | 3.0 | 0.00 | 0.00 | 0.00 | 84 | 1013.7 |
| 20260905151539 | 80 | 337 | 1.0 | 2.0 | 0.00 | 0.00 | 0.00 | 84 | 1014.1 |
| 20260905151034 | 80 | 309 | 0.0 | 2.0 | 0.00 | 0.00 | 0.00 | 82 | 1014.0 |
| 20260905150524 | 80 | 323 | 1.0 | 3.0 | 0.00 | 0.00 | 0.00 | 82 | 1014.1 |
| 20260905150022 | 80 | 328 | 1.0 | 2.0 | 0.00 | 0.00 | 0.00 | 82 | 1014.0 |
| 20260905145520 | 81 | 305 | 2.0 | 3.0 | 0.00 | 0.00 | 0.00 | 80 | 1014.0 |
| 20260905145015 | 82 | 299 | 2.0 | 4.0 | 0.00 | 0.00 | 0.00 | 80 | 1013.7 |
| 20260905144510 | 81 | 311 | 2.0 | 4.0 | 0.00 | 0.00 | 0.00 | 81 | 1014.0 |
| 20260905144009 | 81 | 304 | 2.0 | 2.0 | 0.00 | 0.00 | 0.00 | 81 | 1014.0 |
| 20260905143508 | 82 | 274 | 0.0 | 3.0 | 0.00 | 0.00 | 0.00 | 83 | 1013.8 |
| 20260905143003 | 81 | 304 | 2.0 | 2.0 | 0.00 | 0.00 | 0.00 | 82 | 1013.6 |
| 20260905142502 | 81 | 308 | 2.0 | 3.0 | 0.00 | 0.00 | 0.00 | 82 | 1013.9 |
| 20260905141957 | 81 | 357 | 2.0 | 2.0 | 0.00 | 0.00 | 0.00 | 82 | 1013.9 |
| 20260905141452 | 81 | 290 | 2.0 | 2.0 | 0.00 | 0.00 | 0.00 | 83 | 1013.8 |
| 20260905140948 | 80 | 18 | 0.0 | 2.0 | 0.00 | 0.00 | 0.00 | 84 | 1013.8 |
| 20260905140443 | 80 | 304 | 2.0 | 2.0 | 0.00 | 0.00 | 0.00 | 84 | 1013.6 |
| 20260905135942 | 80 | 299 | 2.0 | 3.0 | 0.00 | 0.00 | 0.00 | 85 | 1013.1 |
| 20260905135438 | 79 | 244 | 0.0 | 3.0 | 0.00 | 0.00 | 0.00 | 85 | 1013.5 |
| 20260905134933 | 79 | 293 | 2.0 | 2.0 | 0.00 | 0.00 | 0.00 | 86 | 1013.4 |
| 20260905134432 | 79 | 282 | 1.0 | 2.0 | 0.00 | 0.00 | 0.00 | 87 | 1013.4 |
| 20260905133931 | 79 | 327 | 2.0 | 2.0 | 0.00 | 0.00 | 0.00 | 88 | 1013.5 |
| 20260905133426 | 78 | 308 | 3.0 | 4.0 | 0.00 | 0.00 | 0.00 | 88 | 1013.4 |
| 20260905132926 | 78 | 330 | 0.0 | 2.0 | 0.00 | 0.00 | 0.00 | 89 | 1013.5 |
| 20260905132421 | 78 | 311 | 0.0 | 2.0 | 0.00 | 0.00 | 0.00 | 90 | 1013.2 |
| 20260905131916 | 77 | 339 | 0.0 | 1.0 | 0.00 | 0.00 | 0.00 | 91 | 1013.2 |
| 20260905131412 | 77 | 291 | 2.0 | 3.0 | 0.00 | 0.00 | 0.00 | 92 | 1013.2 |
| 20260905130907 | 76 | 329 | 2.0 | 2.0 | 0.00 | 0.00 | 0.00 | 94 | 1013.3 |
| 20260905130406 | 76 | 63 | 1.0 | 2.0 | 0.00 | 0.00 | 0.00 | 95 | 1013.2 |
| 20260905125901 | 75 | 242 | 0.0 | 2.0 | 0.00 | 0.00 | 0.00 | 97 | 1013.0 |
| 20260905125356 | 74 | 331 | 0.0 | 3.0 | 0.00 | 0.00 | 0.00 | 99 | 1013.1 |
| 20260905124851 | 74 | 347 | 0.0 | 1.0 | 0.00 | 0.00 | 0.00 | 99 | 1013.1 |
| 20260905124348 | 73 | 309 | 1.0 | 2.0 | 0.00 | 0.00 | 0.00 | 99 | 1013.2 |
| 20260905123848 | 73 | 322 | 0.0 | 1.0 | 0.00 | 0.00 | 0.00 | 99 | 1013.2 |
| 20260905123345 | 73 | 0 | 0.0 | 2.0 | 0.00 | 0.00 | 0.00 | 99 | 1013.3 |
| 20260905122844 | 73 | 295 | 0.0 | 2.0 | 0.00 | 0.00 | 0.00 | 99 | 1013.1 |
| 20260905122343 | 73 | 310 | 1.0 | 2.0 | 0.00 | 0.00 | 0.00 | 99 | 1013.2 |
| 20260905121839 | 72 | 37 | 0.0 | 2.0 | 0.00 | 0.00 | 0.00 | 99 | 1013.2 |
| 20260905121336 | 72 | 294 | 1.0 | 2.0 | 0.00 | 0.00 | 0.00 | 99 | 1013.3 |
| 20260905120834 | 72 | 304 | 1.0 | 2.0 | 0.00 | 0.00 | 0.00 | 99 | 1013.4 |